Weather History for KMVY - October, 2012

Change the Weather History Date:

Tuesday, October 9, 2012

  Actual Average Record
Temperature  
Mean Temperature 57 °F -  
Max Temperature 60 °F 64 °F 84 °F (2011)
Min Temperature 55 °F 46 °F 27 °F (2001)
Degree Days  
Heating Degree Days 8    
Growing Degree Days 7 (Base 50)    
Moisture  
Dew Point 53 °F    
Average Humidity 85    
Maximum Humidity 88    
Minimum Humidity 80    
Precipitation  
Precipitation 0.42 in - - ()
Sea Level Pressure  
Sea Level Pressure 30.19 in    
Wind  
Wind Speed 11 mph (ENE)    
Max Wind Speed 18 mph    
Max Gust Speed 29 mph    
Visibility 8 miles    
Events Rain    
Averages and records for this station are not official NWS values.
T = Trace of Precipitation, MM = Missing Value Source: NWS Daily Summary

Daily Weather History Graph

Daily Weather History Graph

Search for Another Location

Airport or City:

Trip Planner

Search our weather history database for the weather conditions in past years. The results will help you decide how hot, cold, wet, or windy it might be!

Date:

Astronomy

Oct. 09, 2012 Rise Set
Actual Time 6:48 AM EDT 6:10 PM EDT
Civil Twilight 6:20 AM EDT 6:37 PM EDT
Nautical Twilight 5:48 AM EDT 7:09 PM EDT
Astronomical Twilight 5:16 AM EDT 7:41 PM EDT
Moon 12:17 AM EDT (10/9) 2:39 PM EDT (10/9)
Length of Visible Light 12h 17m
Length of Day
11h 22m
Last Quarter, 37% of the Moon is Illuminated
Oct 9
Last Quarter
Oct 15
New
Oct 21
First Quarter
Oct 29
Full
Nov 6
Last Quarter

Hourly Weather History & Observations

Time (EDT) Temp. Dew Point Humidity Pressure Visibility Wind Dir Wind Speed Gust Speed Precip Events Conditions
12:53 AM 55.9 °F 50.0 °F 80% 30.27 in 10.0 mi ESE 5.8 mph - 0.01 in Rain Light Rain
1:04 AM 55.4 °F 50.0 °F 82% 30.28 in 10.0 mi ESE 4.6 mph - 0.03 in Rain Rain
1:29 AM 55.4 °F 51.8 °F 88% 30.28 in 10.0 mi East 5.8 mph - 0.06 in Rain Rain
1:53 AM 55.9 °F 51.1 °F 84% 30.28 in 10.0 mi ENE 4.6 mph - 0.10 in Rain Rain
2:53 AM 55.9 °F 52.0 °F 87% 30.23 in 10.0 mi East 8.1 mph - 0.12 in Rain Rain
3:07 AM 55.4 °F 51.8 °F 88% 30.24 in 9.0 mi East 9.2 mph - 0.05 in Rain Heavy Rain
4:33 AM 55.4 °F 51.8 °F 88% 30.20 in 10.0 mi East 11.5 mph - N/A   Overcast
4:53 AM 55.9 °F 50.0 °F 80% 30.21 in 10.0 mi East 8.1 mph - N/A   Overcast
5:33 AM 55.4 °F 51.8 °F 88% 30.21 in 7.0 mi ENE 13.8 mph 20.7 mph 0.01 in Rain Light Rain
5:53 AM 57.0 °F 52.0 °F 83% 30.20 in 8.0 mi ENE 13.8 mph - 0.02 in Rain Light Rain
6:21 AM 55.4 °F 51.8 °F 88% 30.20 in 3.0 mi ENE 15.0 mph 21.9 mph 0.04 in Rain Rain
6:53 AM 57.0 °F 53.1 °F 87% 30.22 in 5.0 mi ENE 18.4 mph 23.0 mph 0.06 in Rain Light Rain
7:36 AM 55.4 °F 51.8 °F 88% 30.21 in 4.0 mi ENE 17.3 mph 28.8 mph 0.03 in Rain Light Rain
7:53 AM 57.0 °F 53.1 °F 87% 30.22 in 9.0 mi ENE 16.1 mph 21.9 mph 0.03 in Rain Light Rain
7:56 AM 57.2 °F 53.6 °F 88% 30.21 in 7.0 mi East 13.8 mph 21.9 mph 0.00 in Rain Light Rain
8:17 AM 57.2 °F 53.6 °F 88% 30.21 in 9.0 mi East 11.5 mph - 0.00 in Rain Light Rain
8:32 AM 57.2 °F 53.6 °F 88% 30.20 in 10.0 mi East 11.5 mph - 0.00 in   Overcast
8:49 AM 57.2 °F 53.6 °F 88% 30.21 in 10.0 mi East 10.4 mph - 0.00 in   Overcast
8:53 AM 57.9 °F 53.1 °F 84% 30.22 in 10.0 mi East 13.8 mph - 0.00 in   Overcast
9:12 AM 57.2 °F 53.6 °F 88% 30.21 in 8.0 mi ENE 15.0 mph 20.7 mph 0.00 in Rain Light Rain
9:40 AM 57.2 °F 53.6 °F 88% 30.21 in 3.0 mi ENE 16.1 mph 20.7 mph 0.02 in Rain Light Rain
9:53 AM 57.9 °F 54.0 °F 87% 30.21 in 4.0 mi ENE 13.8 mph 20.7 mph 0.03 in Rain Light Rain
10:53 AM 57.9 °F 54.0 °F 87% 30.21 in 10.0 mi ENE 15.0 mph - 0.01 in Rain Light Rain
11:00 AM 57.2 °F 53.6 °F 88% 30.20 in 8.0 mi ENE 13.8 mph - 0.00 in Rain Light Rain
11:03 AM 59.0 °F 53.6 °F 82% 30.20 in 8.0 mi ENE 12.7 mph - 0.00 in Rain Light Rain
11:53 AM 59.0 °F 54.0 °F 83% 30.19 in 10.0 mi NE 13.8 mph 20.7 mph 0.00 in   Overcast
12:53 PM 57.9 °F 54.0 °F 87% 30.17 in 5.0 mi NE 12.7 mph - 0.01 in Rain Light Rain
1:53 PM 57.9 °F 54.0 °F 87% 30.15 in 10.0 mi NE 17.3 mph - 0.00 in Rain Light Rain
1:55 PM 57.2 °F 53.6 °F 88% 30.15 in 9.0 mi NE 18.4 mph - 0.00 in Rain Light Rain
2:53 PM 59.0 °F 54.0 °F 83% 30.15 in 7.0 mi NE 13.8 mph 23.0 mph 0.02 in Rain Light Rain
3:53 PM 59.0 °F 54.0 °F 83% 30.14 in 7.0 mi NE 15.0 mph - 0.01 in Rain Light Rain
4:00 PM 57.2 °F 53.6 °F 88% 30.14 in 6.0 mi NE 18.4 mph 23.0 mph 0.00 in Rain Light Rain
4:15 PM 57.2 °F 53.6 °F 88% 30.13 in 6.0 mi NE 15.0 mph 23.0 mph 0.00 in Rain Light Rain
4:53 PM 57.9 °F 53.1 °F 84% 30.13 in 10.0 mi ENE 17.3 mph 24.2 mph 0.00 in Rain Light Rain
5:53 PM 57.9 °F 53.1 °F 84% 30.13 in 10.0 mi NE 17.3 mph 21.9 mph 0.00 in   Overcast
6:53 PM 57.9 °F 52.0 °F 81% 30.12 in 10.0 mi NE 13.8 mph - N/A   Overcast
7:53 PM 57.9 °F 52.0 °F 81% 30.12 in 10.0 mi NE 12.7 mph 21.9 mph N/A   Overcast
8:53 PM 57.9 °F 52.0 °F 81% 30.12 in 10.0 mi NE 16.1 mph 21.9 mph N/A   Overcast
9:53 PM 57.9 °F 53.1 °F 84% 30.12 in 10.0 mi NE 13.8 mph - N/A   Overcast
10:53 PM 59.0 °F 54.0 °F 83% 30.11 in 10.0 mi NE 11.5 mph - N/A   Overcast
11:39 PM 59.0 °F 53.6 °F 82% 30.11 in 10.0 mi NE 9.2 mph - N/A   Overcast
11:53 PM 59.0 °F 54.0 °F 83% 30.11 in 10.0 mi NE 11.5 mph - N/A   Overcast